Flag for Algeria Weather past 2 weeks in Oran, Algeria

Now
66 °F

Clear.


Feels Like: 66 °F
Forecast: 65 / 77 °F
Wind: 7 mph from North

Location: Oran / Es Senia

Current Time: Jun 3, 2015 at 2:52:18 AM

Latest Report: Jun 3, 2015 at 2:30 AM


Visibility: 10 mi

Pressure: 30.04 "Hg

Humidity: 83%

Dew point: 61 °F

Location of OranLocation

Historic Weather in Oran — Graph

°F

Oran temperature yesterday

Maximum temperature yesterday: 81 °F (at 12:30 PM)
Minimum temperature yesterday: 59 °F (at 6:00 AM)
Average temperature yesterday: 70 °F

Past Weeks' High & Low Weather Summary

 TemperatureHumidityPressure
High84 °F (May 27, 1:00 PM)100% (May 25, 5:30 AM)30.21 "Hg (May 25, 5:30 AM)
Low54 °F (May 22, 5:00 AM)32% (May 28, 5:30 PM)29.74 "Hg (Jun 2, 4:00 PM)
Average68 °F72%30.00 "Hg
* Reported May 19 1:00 AM — Jun 3 1:30 AM, Oran, Weather by CustomWeather, © 2015

Note: Actual official high and low records may vary slightly from our data, if they occured in-between our weather recording intervals... More about our weather records

Advertising

Oran weather history for previous 24 hours

 ConditionsComfort  
Time TempWeatherWind HumidityBarometerVisibility
1:30 AM
Wed, Jun 3
66 °FClear.7 mph83%30.07 "Hg10 mi
1:00 AM66 °FClear.5 mph83%30.07 "Hg10 mi
12:30 AM66 °FPassing clouds.3 mph73%30.07 "HgN/A
12:00 AM66 °FPassing clouds.No wind73%30.07 "HgN/A
11:30 PM
Tue, Jun 2
68 °FPassing clouds.5 mph64%30.07 "HgN/A
11:00 PM68 °FPassing clouds.No wind64%30.07 "HgN/A
10:30 PM70 °FPassing clouds.7 mph60%30.07 "HgN/A
10:00 PM70 °FPassing clouds.7 mph60%30.07 "HgN/A
9:30 PM72 °FPassing clouds.2 mph73%30.04 "HgN/A
9:00 PM72 °FPassing clouds.7 mph73%30.04 "HgN/A
8:30 PM70 °FPassing clouds.5 mph83%30.04 "HgN/A
8:00 PM72 °FPassing clouds.8 mph78%30.04 "HgN/A
7:30 PM72 °FPassing clouds.8 mph83%30.04 "HgN/A
7:00 PM72 °FPassing clouds.12 mph83%30.04 "HgN/A
6:30 PM73 °FPassing clouds.14 mph74%30.04 "HgN/A
6:00 PM75 °FPassing clouds.12 mph69%30.04 "HgN/A
5:30 PM75 °FPassing clouds.14 mph61%30.04 "HgN/A
5:00 PM75 °FPassing clouds.15 mph61%30.04 "HgN/A
4:30 PM75 °FPassing clouds.15 mph61%29.74 "HgN/A
4:00 PM75 °FPassing clouds.15 mph61%29.74 "HgN/A
3:30 PM77 °FPassing clouds.18 mph57%30.04 "Hg6 mi
3:00 PM77 °FPassing clouds.15 mph57%30.07 "Hg6 mi
2:00 PM81 °FPassing clouds.12 mph51%30.07 "Hg6 mi
1:30 PM81 °FPassing clouds.14 mph51%30.07 "Hg6 mi
12:30 PM81 °FPassing clouds.13 mph54%30.07 "Hg6 mi
12:00 PM79 °FPassing clouds.8 mph58%30.07 "Hg6 mi
11:30 AM79 °FPassing clouds.10 mph58%30.07 "Hg6 mi
11:00 AM77 °FPassing clouds.8 mph61%30.07 "Hg6 mi
10:30 AM73 °FPassing clouds.9 mph69%30.09 "Hg6 mi
10:00 AM72 °FPassing clouds.8 mph73%30.07 "Hg6 mi
9:30 AM72 °FPassing clouds.12 mph73%30.07 "Hg6 mi
9:00 AM70 °FPassing clouds.13 mph78%30.07 "Hg6 mi
8:30 AM68 °FPassing clouds.12 mph88%30.07 "Hg6 mi
8:00 AM66 °FPassing clouds.7 mph94%30.07 "Hg5 mi
7:30 AM64 °FFog.2 mph94%30.04 "Hg1 mi
7:00 AM61 °FFog.2 mph100%30.04 "Hg0 mi
6:30 AM59 °FFog.2 mph100%30.04 "Hg0 mi
6:00 AM59 °FFog.2 mph94%30.04 "Hg1 mi
5:30 AM61 °FFog.5 mph100%30.04 "Hg2 mi
4:30 AM61 °FPassing clouds.5 mph94%30.04 "Hg4 mi
4:00 AM61 °FPassing clouds.5 mph94%30.04 "Hg5 mi
3:30 AM61 °FPassing clouds.2 mph94%30.04 "Hg5 mi
3:00 AM63 °FPassing clouds.2 mph94%30.04 "Hg5 mi
2:30 AM63 °FPassing clouds.2 mph94%30.04 "Hg5 mi
2:00 AM63 °FPassing clouds.2 mph94%30.04 "Hg5 mi
Weather by CustomWeather, © 2015

See weather overviewHow to use our weather pages